O'Neill, NE

7:55 PM CDT on June 25, 2017 (GMT -0500)
The O'Neill Municipal-Baker

Weather History for KONL - January, 2013

Change the Weather History Date:

Saturday, January 19, 2013

  Actual Average Record
Temperature  
Mean Temperature 32 °F -  
Max Temperature 50 °F 32 °F 64 °F (2014)
Min Temperature 14 °F 10 °F -25 °F (1970)
Degree Days  
Heating Degree Days 32    
Moisture  
Dew Point 23 °F    
Average Humidity 58    
Maximum Humidity 83    
Minimum Humidity 37    
Precipitation  
Precipitation 0.00 in - - ()
Sea Level Pressure  
Sea Level Pressure 30.07 in    
Wind  
Wind Speed 12 mph (NW)    
Max Wind Speed 23 mph    
Max Gust Speed 32 mph    
Visibility 10 miles    
Events      
Averages and records for this station are not official NWS values.
T = Trace of Precipitation, MM = Missing Value Source: NWS Daily Summary

Daily Weather History Graph

Daily Weather History Graph

Search for Another Location

Airport or City:

Trip Planner

Search our weather history database for the weather conditions in past years. The results will help you decide how hot, cold, wet, or windy it might be!

Date:

Astronomy

Jan. 19, 2013 Rise Set
Actual Time 7:59 AM CST 5:32 PM CST
Civil Twilight 7:28 AM CST 6:03 PM CST
Nautical Twilight 6:54 AM CST 6:37 PM CST
Astronomical Twilight 6:20 AM CST 7:11 PM CST
Moon 12:00 PM CST (1/19) 1:33 AM CST (1/19)
Length of Visible Light 10h 34m
Length of Day
9h 33m
First Quarter, 57% of the Moon is Illuminated
Jan 19
First Quarter
Jan 26
Full
Feb 3
Last Quarter
Feb 10
New
Feb 17
First Quarter

Hourly Weather History & Observations

Time (CST) Temp. Windchill Dew Point Humidity Pressure Visibility Wind Dir Wind Speed Gust Speed Precip Events Conditions
12:15 AM 36.1 °F 31.4 °F 22.8 °F 58% 29.84 in 10.0 mi WSW 5.8 mph - N/A   Clear
12:35 AM 36.0 °F 30.3 °F 23.0 °F 59% 29.84 in 10.0 mi WSW 6.9 mph - N/A   Clear
12:55 AM 37.2 °F 31.9 °F 23.5 °F 58% 29.84 in 10.0 mi WSW 6.9 mph - N/A   Clear
1:15 AM 36.0 °F 29.0 °F 23.5 °F 61% 29.84 in 10.0 mi WSW 9.2 mph - N/A   Clear
1:35 AM 36.7 °F 30.5 °F 23.9 °F 60% 29.85 in 10.0 mi West 8.1 mph - N/A   Clear
1:55 AM 36.5 °F 29.7 °F 24.4 °F 62% 29.85 in 10.0 mi WSW 9.2 mph - N/A   Clear
2:15 AM 36.3 °F 30.8 °F 24.4 °F 62% 29.85 in 10.0 mi WSW 6.9 mph - N/A   Clear
2:35 AM 37.4 °F 30.3 °F 24.8 °F 60% 29.86 in 10.0 mi West 10.4 mph - N/A   Clear
2:55 AM 37.8 °F 30.7 °F 25.2 °F 60% 29.85 in 10.0 mi West 10.4 mph - N/A   Clear
3:15 AM 38.3 °F 32.5 °F 25.5 °F 60% 29.85 in 10.0 mi West 8.1 mph - N/A   Clear
3:35 AM 38.7 °F 31.4 °F 25.7 °F 60% 29.85 in 10.0 mi West 11.5 mph - N/A   Clear
3:55 AM 39.2 °F 33.0 °F 25.7 °F 58% 29.85 in 10.0 mi West 9.2 mph - N/A   Clear
4:15 AM 38.7 °F 31.8 °F 25.7 °F 60% 29.85 in 10.0 mi West 10.4 mph - N/A   Clear
4:35 AM 39.0 °F 32.3 °F 25.3 °F 58% 29.85 in 10.0 mi West 10.4 mph - N/A   Clear
4:55 AM 41.5 °F 34.6 °F 24.1 °F 50% 29.86 in 10.0 mi WNW 12.7 mph - N/A   Clear
5:15 AM 39.0 °F 32.3 °F 23.9 °F 55% 29.88 in 10.0 mi West 10.4 mph - N/A   Clear
5:35 AM 37.8 °F 30.2 °F 24.4 °F 59% 29.88 in 10.0 mi West 11.5 mph - N/A   Clear
5:55 AM 37.8 °F 30.2 °F 24.1 °F 58% 29.89 in 10.0 mi West 11.5 mph - N/A   Clear
7:15 AM 37.4 °F 28.9 °F 23.9 °F 58% 29.92 in 10.0 mi West 13.8 mph - N/A   Clear
7:55 AM 37.0 °F 28.9 °F 23.7 °F 59% 29.94 in 10.0 mi West 12.7 mph - N/A   Clear
8:15 AM 36.9 °F 28.2 °F 23.9 °F 59% 29.94 in 10.0 mi West 13.8 mph - N/A   Clear
8:35 AM 37.9 °F 30.0 °F 23.9 °F 57% 29.96 in 10.0 mi West 12.7 mph - N/A   Clear
9:35 AM 43.3 °F 35.0 °F 23.9 °F 46% 30.00 in 10.0 mi WNW 19.6 mph 25.3 mph N/A   Clear
9:55 AM 44.1 °F 36.8 °F 24.4 °F 46% 30.01 in 10.0 mi WNW 16.1 mph 25.3 mph N/A   Clear
10:15 AM 45.5 °F 37.1 °F 24.6 °F 44% 30.02 in 10.0 mi WNW 23.0 mph 28.8 mph N/A   Clear
10:35 AM 46.4 °F 38.7 °F 25.2 °F 43% 30.04 in 10.0 mi NW 20.7 mph 28.8 mph N/A   Clear
10:55 AM 46.9 °F - 25.3 °F 43% 30.06 in 10.0 mi NW 21.9 mph 28.8 mph N/A   Clear
11:15 AM 47.7 °F - 25.7 °F 42% 30.06 in 10.0 mi NW 20.7 mph 25.3 mph N/A   Clear
11:35 AM 48.2 °F - 25.9 °F 42% 30.06 in 10.0 mi NW 19.6 mph 24.2 mph N/A   Clear
11:55 AM 48.9 °F - 26.2 °F 41% 30.06 in 10.0 mi NW 18.4 mph 24.2 mph N/A   Clear
12:15 PM 49.1 °F - 25.9 °F 40% 30.05 in 10.0 mi NW 17.3 mph - N/A   Clear
12:35 PM 50.0 °F - 25.5 °F 39% 30.04 in 10.0 mi WNW 17.3 mph 25.3 mph N/A   Clear
12:55 PM 50.5 °F - 25.3 °F 38% 30.05 in 10.0 mi WNW 18.4 mph 24.2 mph N/A   Clear
1:15 PM 50.0 °F - 24.8 °F 37% 30.05 in 10.0 mi NW 21.9 mph - N/A   Clear
1:35 PM 50.5 °F - 25.9 °F 38% 30.07 in 10.0 mi NW 20.7 mph 25.3 mph N/A   Clear
1:55 PM 49.8 °F - 25.3 °F 39% 30.07 in 10.0 mi NNW 21.9 mph 27.6 mph N/A   Clear
2:15 PM 49.5 °F - 24.6 °F 38% 30.08 in 10.0 mi NW 19.6 mph 31.1 mph N/A   Scattered Clouds
2:35 PM 50.2 °F - 24.8 °F 37% 30.09 in 10.0 mi NW 20.7 mph 26.5 mph N/A   Scattered Clouds
2:55 PM 49.8 °F - 24.8 °F 38% 30.10 in 10.0 mi NNW 21.9 mph 32.2 mph N/A   Scattered Clouds
3:15 PM 49.1 °F - 24.4 °F 38% 30.11 in 10.0 mi NNW 21.9 mph 28.8 mph N/A   Scattered Clouds
3:35 PM 48.6 °F - 24.4 °F 39% 30.11 in 10.0 mi NW 21.9 mph 26.5 mph N/A   Clear
3:55 PM 48.2 °F - 24.8 °F 40% 30.12 in 10.0 mi NNW 19.6 mph 25.3 mph N/A   Clear
4:15 PM 46.8 °F - 25.0 °F 43% 30.13 in 10.0 mi NNW 18.4 mph 28.8 mph N/A   Clear
4:35 PM 45.3 °F 36.9 °F 25.3 °F 46% 30.14 in 10.0 mi NNW 23.0 mph 27.6 mph N/A   Clear
4:55 PM 43.9 °F 35.0 °F 25.7 °F 49% 30.16 in 10.0 mi NNW 23.0 mph 27.6 mph N/A   Clear
5:15 PM 42.4 °F 34.1 °F 26.6 °F 54% 30.17 in 10.0 mi NNW 18.4 mph - N/A   Clear
5:35 PM 40.3 °F 31.3 °F 26.6 °F 58% 30.18 in 10.0 mi NNW 18.4 mph 21.9 mph N/A   Clear
5:55 PM 38.7 °F 30.5 °F 26.4 °F 61% 30.19 in 10.0 mi NNW 13.8 mph 20.7 mph N/A   Clear
6:15 PM 35.8 °F 25.7 °F 28.4 °F 75% 30.21 in 10.0 mi North 17.3 mph 24.2 mph N/A   Clear
6:35 PM 30.7 °F 20.4 °F 25.5 °F 81% 30.23 in 10.0 mi North 13.8 mph 25.3 mph N/A   Clear
6:55 PM 28.9 °F 17.7 °F 23.2 °F 79% 30.24 in 10.0 mi North 15.0 mph - N/A   Clear
7:15 PM 28.2 °F 18.3 °F 22.1 °F 78% 30.26 in 10.0 mi North 11.5 mph - N/A   Clear
7:35 PM 27.5 °F 18.0 °F 20.5 °F 75% 30.26 in 10.0 mi North 10.4 mph - N/A   Scattered Clouds
7:55 PM 26.6 °F 15.7 °F 19.6 °F 75% 30.26 in 10.0 mi North 12.7 mph - N/A   Clear
8:15 PM 24.8 °F 13.4 °F 18.5 °F 77% 30.27 in 10.0 mi North 12.7 mph 18.4 mph N/A   Clear
8:35 PM 23.5 °F 13.7 °F 17.4 °F 77% 30.26 in 10.0 mi North 9.2 mph - N/A   Clear
8:55 PM 22.8 °F 12.2 °F 16.2 °F 76% 30.27 in 10.0 mi North 10.4 mph - N/A   Clear
9:15 PM 21.6 °F 8.8 °F 15.8 °F 78% 30.28 in 10.0 mi North 13.8 mph 18.4 mph N/A   Clear
9:35 PM 20.5 °F 8.6 °F 15.1 °F 80% 30.28 in 10.0 mi North 11.5 mph - N/A   Clear
9:55 PM 19.6 °F 8.9 °F 14.0 °F 79% 30.30 in 10.0 mi North 9.2 mph - N/A   Clear
10:15 PM 18.5 °F 7.5 °F 13.1 °F 79% 30.31 in 10.0 mi North 9.2 mph - N/A   Clear
10:35 PM 18.1 °F 11.3 °F 12.6 °F 79% 30.32 in 10.0 mi North 4.6 mph - N/A   Clear
10:55 PM 17.4 °F 8.0 °F 12.2 °F 80% 30.33 in 10.0 mi North 6.9 mph - N/A   Clear
11:15 PM 16.3 °F 6.7 °F 12.0 °F 83% 30.32 in 10.0 mi North 6.9 mph - N/A   Clear
11:35 PM 15.6 °F 7.0 °F 11.1 °F 82% 30.31 in 10.0 mi NNE 5.8 mph - N/A   Clear
11:55 PM 14.9 °F 6.1 °F 10.2 °F 82% 30.31 in 10.0 mi NNE 5.8 mph - N/A   Clear